COSMOS 1691 DEB, 18282

Orbit data source: Space-Track

COSMOS 1691 DEB, 18282 is space debris in LEO originally from a launch on Wed, 09 Oct 1985 UTC launched from the Plesetsk Missile And Space Complex (PKMTR). Debris objects in space refer to the collection of defunct objects orbiting the Earth. Examples of debris include non-operational satellites, rocket bodies, and fragments generated from explosions, collisions, or faulty payload assembly.

Loading next visibility...
Identifier
18282, 1985-094T
Orbit
LEO
Country
Flag of CISCIS
Related business
Manufacturer
Unknown
Mission
Spacecraft
Bus & Motor
Unknown
Mass
Unknown
Launch date (UTC)
1985-10-09 (40 years ago)
Launch vehicle
Unknown
Launch site
Plesetsk Missile And Space Complex (PKMTR)
Object type
Payload
Rocket body
Debris
Shape & HBR
Unknown shape, 0.1 m
Radar Cross Section
Small (<0.1 m²)

Expand to show TLE details & history
Last TLE update: 13 hours ago

TLE from 13 hours ago
0 COSMOS 1691 DEB
1 18282U 85094T   25295.07001311  .00000951  00000-0  42275-2 0  9990
2 18282  82.6247 327.9987 0005852  32.0696 356.1009 12.78393252855692
Epoch: 2025-10-22T01:40Z
TLE epoch observation values (Epoch: 2025-10-22T01:40:49.132Z)
Latitude
27.95162°
Longitude
-84.03616°
Altitude
1,346.74 km
Speed
7.189 km/s
True Right ascension
22h 07m 40s
True Declination
27° 49' 13"
Sunlit
Object was in full shadow at epoch
Visualization orbit readout
Latitude
Unknown
Longitude
Unknown
Altitude
Unknown
Speed
Unknown
Apparent Right ascension
Unknown
Apparent Declination
Unknown
Sunlit
N/A
Visualization observer readout
Local Sidereal Time
09:57:08
Azimuth
Unknown
Elevation
Unknown
Doppler factor
Unknown
Orbital elements
Apogee altitude
1,349.753 km
Perigee altitude
1,340.713 km
Semi-major axis
7,723.37 km
Eccentricity
0.00059
Inclination
82.6247°
RAAN
327.9987°
Arg. of periapsis
32.0696°
True anomaly
356.09634°
Mean anomaly
356.1009°
Eccentric anomaly
356.09862°
Mean motion
3.19766 °/min
Orbital period
112.58 mins
BSTAR
0.0042275
Loading maneuver chart data...
Computing Atmospheric mass density...
Loading historical data...
Loading historical data...
Loading historical data...
Loading historical data...
Loading historical data...
Loading historical data...
Loading historical data...

Documentation

Showing up to 5 results
|